#timestamp,LO_Frequency,Hit,StdDev 
1711468815.5,286047002.5,N
1711468835.3,286047002.1,N
1711468855.1,286047002.8,N
1711468875.9,286047003.6,Y
1711468895.7,286047000.9,P
1711468915.6,286046999.9,N
1711468935.4,286046996.7,P
1711468955.2,286046999.2,N
1711468975.1,286047001.6,N
1711468976.0,286047001.6,N
1711468995.8,286047005.9,Y
1711469015.7,286047000.1,P
1711469035.5,286047002.2,P
1711469055.3,286047003.1,P
1711469075.2,286047000.6,N
1711469095.9,286046996.5,Y
1711469115.7,286046999.0,P
1711469135.6,286047001.2,N
1711469155.4,286047007.4,P
1711469175.3,286047004.6,N
1711469195.1,286047007.3,N
1711469196.0,286047007.3,N
1711469215.8,286047006.9,N
1711469235.7,286047006.4,N
1711469255.5,286047005.4,N
1711469275.3,286047004.6,N
1711469295.2,286047008.3,N
1711469315.0,286047010.4,Y
1711469315.9,286047010.4,P
1711469335.8,286047009.0,P
1711469355.6,286047004.7,N
1711469375.4,286047003.2,N
1711469395.3,286047004.3,N
1711469415.1,286047002.1,N
1711469435.8,286047001.0,N
1711469455.7,286047000.7,N
1711469475.5,286047002.5,N
1711469495.4,286047000.7,N
1711469515.2,286046999.4,N
1711469535.0,286047001.8,N
1711469535.9,286047001.8,N
1711469555.8,286047001.9,N
1711469575.6,286047001.7,N
1711469595.4,286047005.8,N
1711469615.3,286047004.2,N
1711469635.1,286047004.0,N
1711469655.9,286047002.8,N
1711469675.7,286047001.5,N
1711469695.5,286047005.9,N
1711469715.4,286047012.0,Y
1711469735.2,286047005.0,P
1711469755.0,286047008.3,P
1711469755.9,286047008.3,P
1711469775.8,286047010.6,Y
1711469795.6,286047001.5,P
1711469815.5,286047003.1,N
1711469835.3,286047009.6,P
1711469855.1,286047011.3,Y
1711469875.9,286047003.9,P
1711469895.7,286047005.4,P
1711469915.6,286047000.0,N
1711469935.4,286047006.0,N
1711469955.2,286047000.2,N
1711469975.1,286047001.1,N
1711469976.0,286047001.1,N
1711469995.8,286047002.7,N
1711470015.6,286047005.7,N
1711470035.5,286047007.5,Y
1711470055.3,286046999.0,P
1711470075.2,286047007.5,P
1711470095.9,286047002.1,N
1711470115.7,286046995.7,N
1711470135.6,286046998.2,N
1711470155.4,286047003.8,N
1711470175.2,286047001.7,N
1711470195.1,286047005.8,N
1711470196.0,286047005.8,N
1711470215.8,286047007.9,N
1711470235.7,286047010.1,N
1711470255.5,286047012.1,N
1711470275.3,286047014.2,Y
1711470295.2,286047006.2,P
1711470315.0,286047006.0,P
1711470315.9,286047006.0,P
1711470335.7,286047002.3,N
1711470355.6,286047004.3,N
1711470375.4,286047005.2,Y
1711470395.3,286047000.6,P
1711470415.1,286046998.9,N
1711470435.8,286047004.5,N
1711470455.7,286047003.9,N
1711470475.5,286047005.4,N
1711470495.4,286047003.9,N
1711470515.2,286047006.0,N
1711470535.0,286047004.4,N
1711470535.9,286047004.4,N
1711470555.8,286047003.5,N
1711470575.6,286047001.7,N
1711470595.4,286047004.2,N
1711470615.3,286047003.1,N
1711470635.1,286047002.3,N
1711470655.9,286047003.1,N
1711470675.7,286047006.4,Y
1711470695.5,286047007.5,P
1711470715.4,286047005.0,N
1711470735.2,286047002.1,N
1711470755.1,286047000.0,N
1711470756.0,286047000.0,N
1711470775.8,286046998.5,N
1711470795.6,286047001.2,N
1711470815.5,286046998.8,N
1711470835.3,286046997.9,N
1711470855.2,286046993.1,N
1711470875.9,286046996.6,N
1711470895.7,286047011.1,N
1711470915.6,286047013.6,N
1711470935.4,286047012.7,N
1711470955.2,286047009.7,N
1711470975.1,286047006.4,N
1711470976.0,286047006.4,N
1711470995.8,286047002.9,N
1711471015.7,286047000.2,N
1711471035.5,286047001.0,N
1711471055.3,286047001.4,N
1711471075.2,286047008.9,N
1711471095.0,286047007.8,N
1711471095.9,286047007.8,N
1711471115.8,286047006.7,N
1711471135.6,286047007.3,N
1711471155.4,286047006.6,N
1711471175.3,286047005.4,N
1711471195.1,286047007.5,N
1711471215.9,286047004.7,N
1711471235.7,286047003.6,N
1711471255.5,286047003.8,N
1711471275.4,286047006.9,N
1711471295.2,286047005.4,N
1711471315.0,286047006.1,N
1711471315.9,286047006.1,N
1711471335.8,286047007.7,N
1711471355.6,286047013.9,Y
1711471375.5,286047008.6,P
1711471395.3,286047009.2,P
1711471415.1,286047008.7,P
1711471435.9,286047010.3,Y
1711471455.7,286047000.3,P
1711471475.6,286047001.1,N
1711471495.4,286046999.2,N
1711471515.2,286047002.6,N
1711471535.1,286047003.0,N
1711471536.0,286047003.0,N
1711471555.8,286046999.7,N
1711471575.7,286046996.8,N
1711471595.5,286046992.4,N
1711471615.3,286046996.2,N
1711471635.2,286046994.9,N
1711471655.0,286046995.4,N
1711471655.9,286046995.4,N
1711471675.7,286046997.8,N
1711471695.6,286046993.4,N
1711471715.4,286046997.4,N
1711471735.3,286046999.1,N
1711471755.1,286046994.0,N
1711471756.0,286046994.0,N
1711471775.8,286046995.6,N
1711471795.7,286047001.1,N
1711471815.5,286046998.5,N
1711471835.3,286047003.5,N
1711471855.2,286047004.0,N
1711471875.0,286047000.4,N
1711471875.9,286047000.4,N
1711471895.8,286046996.6,N
1711471915.6,286046996.8,N
1711471935.4,286046995.5,N
1711471955.3,286046995.8,N
1711471975.1,286046995.7,N
1711471995.8,286046995.0,N
1711472015.7,286047004.1,N
1711472035.5,286047004.6,N
1711472055.4,286047004.9,N
1711472075.2,286047005.7,N
1711472095.0,286047000.5,N
1711472095.9,286047000.5,N
1711472115.8,286046999.3,N
1711472135.6,286047000.8,N
1711472155.5,286046997.4,N
1711472175.3,286046994.4,N
1711472195.1,286046999.4,N
1711472215.9,286047000.4,N
1711472235.7,286047000.7,N
1711472255.5,286047000.8,N
1711472275.4,286047001.9,N
1711472295.2,286047002.8,N
1711472315.1,286047000.9,N
1711472316.0,286047000.9,N
1711472335.8,286047005.6,N
1711472355.6,286047006.0,N
1711472375.5,286047013.3,Y
1711472395.3,286047011.1,P
